Location: Newark
(52.3735°N, 16.9806°E)
Time: 03:49:01
(UTC+00:00)

LilacSat-2 - Pass Details

Date: 02 December 2021
Orbit: 511 x 532 km, 97.5° (Epoch: 16 January)

Event Time Altitude Azimuth Distance (km) Brightness Sun altitude
Rises 05:29:51 0° 8° (N) 2,685 ? -10.3°
Reaches altitude 10° 05:32:02 10° 1° (N) 1,793 ? -9.9°
Maximum altitude 05:35:40 41° 291° (WNW) 786 ? -9.4°
Drops below altitude 10° 05:39:18 10° 221° (SW) 1,785 ? -8.9°
Sets 05:41:29 0° 214° (SW) 2,671 ? -8.6°
